Quincy, IL

9:58 AM CDT on May 27, 2017 (GMT -0500)
Quincy Regional-Baldwin

Weather History for KUIN - April, 2012

Change the Weather History Date:

Monday, April 2, 2012

  Actual Average Record
Temperature  
Mean Temperature 71 °F 49 °F  
Max Temperature 87 °F 59 °F 87 °F (2012)
Min Temperature 55 °F 38 °F 22 °F (1961)
Degree Days  
Heating Degree Days 0 17  
Month to date heating degree days 34  
Since 1 July heating degree days 5094  
Cooling Degree Days 6 0  
Month to date cooling degree days 0  
Year to date cooling degree days 2  
Growing Degree Days 21 (Base 50)    
Moisture  
Dew Point 55 °F    
Average Humidity 63    
Maximum Humidity 94    
Minimum Humidity 31    
Precipitation  
Precipitation 0.00 in 0.11 in 1.29 in (2010)
Month to date precipitation 0.22  
Year to date precipitation 6.08  
Sea Level Pressure  
Sea Level Pressure 29.69 in    
Wind  
Wind Speed 8 mph (SE)    
Max Wind Speed 12 mph    
Max Gust Speed 17 mph    
Visibility 8 miles    
Events      
T = Trace of Precipitation, MM = Missing Value Source: NWS Daily Summary

Daily Weather History Graph

Daily Weather History Graph

Search for Another Location

Airport or City:

Trip Planner

Search our weather history database for the weather conditions in past years. The results will help you decide how hot, cold, wet, or windy it might be!

Date:

Astronomy

Apr. 02, 2012 Rise Set
Actual Time 6:46 AM CDT 7:30 PM CDT
Civil Twilight 6:19 AM CDT 7:57 PM CDT
Nautical Twilight 5:46 AM CDT 8:30 PM CDT
Astronomical Twilight 5:13 AM CDT 9:03 PM CDT
Moon 3:06 PM CDT (4/2) 3:59 AM CDT (4/2)
Length of Visible Light 13h 38m
Length of Day
12h 44m
Waxing Gibbous, 78% of the Moon is Illuminated
Apr 2
Waxing Gibbous
Apr 6
Full
Apr 13
Last Quarter
Apr 21
New
Apr 29
First Quarter

Hourly Weather History & Observations

Time (CDT) Temp. Heat Index Dew Point Humidity Pressure Visibility Wind Dir Wind Speed Gust Speed Precip Events Conditions
12:54 AM 68.0 °F - 53.1 °F 59% 29.57 in 10.0 mi ESE 8.1 mph - N/A   Clear
1:54 AM 64.9 °F - 54.0 °F 68% 29.59 in 10.0 mi East 6.9 mph - N/A   Clear
2:54 AM 62.1 °F - 55.9 °F 80% 29.60 in 6.0 mi East 9.2 mph - N/A   Haze
3:54 AM 59.0 °F - 54.0 °F 83% 29.62 in 4.0 mi East 8.1 mph - N/A   Haze
4:54 AM 57.0 °F - 53.1 °F 87% 29.64 in 4.0 mi East 6.9 mph - N/A   Clear
5:54 AM 55.9 °F - 52.0 °F 87% 29.66 in 4.0 mi East 8.1 mph - N/A   Clear
6:51 AM 55.4 °F - 51.8 °F 88% 29.70 in 2.5 mi ESE 6.9 mph - N/A   Clear
6:54 AM 55.9 °F - 52.0 °F 87% 29.69 in 2.5 mi ESE 8.1 mph - N/A   Clear
7:22 AM 55.4 °F - 53.6 °F 94% 29.71 in 3.0 mi ESE 6.9 mph - N/A   Clear
7:54 AM 57.9 °F - 54.0 °F 87% 29.71 in 2.5 mi East 9.2 mph - N/A   Clear
8:07 AM 57.2 °F - 53.6 °F 88% 29.73 in 3.0 mi East 9.2 mph - N/A   Clear
8:54 AM 62.1 °F - 55.0 °F 78% 29.73 in 5.0 mi ESE 8.1 mph - N/A   Haze
9:54 AM 70.0 °F - 59.0 °F 68% 29.73 in 7.0 mi SSE 8.1 mph - N/A   Clear
10:54 AM 75.9 °F - 62.1 °F 62% 29.73 in 10.0 mi SE 6.9 mph - N/A   Clear
11:54 AM 80.1 °F 81.2 °F 62.1 °F 54% 29.73 in 10.0 mi SSW 9.2 mph - N/A   Clear
12:54 PM 82.0 °F 83.0 °F 62.1 °F 51% 29.72 in 10.0 mi SSE 5.8 mph - N/A   Clear
1:54 PM 84.0 °F 84.5 °F 62.1 °F 47% 29.71 in 10.0 mi SSE 11.5 mph - N/A   Clear
2:54 PM 86.0 °F 86.1 °F 61.0 °F 43% 29.70 in 10.0 mi SSE 10.4 mph - N/A   Clear
3:54 PM 87.1 °F 87.0 °F 61.0 °F 41% 29.69 in 10.0 mi SSW 10.4 mph - N/A   Clear
4:54 PM 86.0 °F 84.9 °F 57.0 °F 37% 29.68 in 10.0 mi South 8.1 mph 17.3 mph N/A   Clear
5:54 PM 84.9 °F - 51.1 °F 31% 29.68 in 10.0 mi WSW 8.1 mph - N/A   Clear
6:54 PM 84.0 °F - 51.1 °F 32% 29.69 in 10.0 mi SW 3.5 mph - N/A   Clear
7:54 PM 80.1 °F - 51.1 °F 36% 29.70 in 10.0 mi Calm Calm - N/A   Clear
8:54 PM 77.0 °F - 51.1 °F 40% 29.73 in 10.0 mi South 4.6 mph - N/A   Clear
9:54 PM 72.0 °F - 53.1 °F 51% 29.75 in 10.0 mi SSE 5.8 mph - N/A   Clear
10:54 PM 70.0 °F - 54.0 °F 57% 29.76 in 10.0 mi SSE 6.9 mph - N/A   Clear
11:54 PM 72.0 °F - 57.0 °F 59% 29.75 in 10.0 mi SSE 6.9 mph - N/A   Clear